Weather Roundup
Issued by NWS Springfield, MO

Home | Current Version | Previous Version | Text Only | Print | Product List | Glossary On
Versions: 1 2 3 4 5 6 7 8 9 10 11 12 13 14 15 16 17 18 19 20 21 22 23 24 25 26 27 28 29 30 31 32 33 34 35 36 37 38 39 40 41 42 43 44 45 46 47 48 49 50
292
NZUS99 KSGF 221757
HRRSGF

HOURLY WEATHER
NATIONAL WEATHER SERVICE SPRINGFIELD MO
100 PM CDT WED MAR 22 2017

......SGF CWA......

CITY           SKY/WX    TMP DP  RH WIND       PRES   REMARKS
SPRINGFIELD    SUNNY     57  29  34 SE16      30.28F
6HR MIN TEMP:  46; 6HR MAX TEMP:  58;

JOPLIN         CLOUDY    53  30  41 E12       30.28R
6HR MIN TEMP:  47; 6HR MAX TEMP:  53;

WEST PLAINS    SUNNY     55  33  43 E13       30.33F
6HR MIN TEMP:  43; 6HR MAX TEMP:  55;

ROLLA          SUNNY     49  28  44 NE8G18    30.36F
6HR MIN TEMP:  37; 6HR MAX TEMP:  50;

BRANSON        CLOUDY    48  32  53 E14       30.30F

......SURROUNDING SGF CWA......

CITY           SKY/WX    TMP DP  RH WIND       PRES   REMARKS
CHANUTE        CLOUDY    56  26  31 E14       30.27F
PARSONS        CLOUDY    56  30  37 VRB6      30.27F
COFFEYVILLE    CLOUDY    55  35  47 E15       30.26F
EMPORIA        SUNNY     56  26  31 E18       30.26F
HARRISON AR    CLOUDY    49  35  58 SE12      30.29F

......KANSAS AND MISSOURI......

CITY           SKY/WX    TMP DP  RH WIND       PRES   REMARKS
KANSAS CTY INT PTSUNNY   52  26  36 E17G28    30.35F
SEDALIA        CLOUDY    50  29  44 E14       30.37S
ST JOSEPH      MOSUNNY   52  25  35 E9        30.37F
ST LOUIS       PTSUNNY   47  21  35 NE10      30.45F
WICHITA        CLOUDY    53  31  42 E17       30.23F
TOPEKA         CLOUDY    53  22  29 E14       30.31F
OLATHE         SUNNY     51  24  34 SE14G22   30.33F

......TENNESSEE......

CITY           SKY/WX    TMP DP  RH WIND       PRES   REMARKS
MEMPHIS        CLOUDY    50  41  72 NE10      30.31F
NASHVILLE      PTSUNNY   55  24  30 NE17      30.34F

......ARKANSAS.......

CITY           SKY/WX    TMP DP  RH WIND       PRES   REMARKS
FAYETTEVILLE   CLOUDY    57  43  59 SE13G20   30.24F
FT SMITH       CLOUDY    56  41  57 E14       30.24F
LITTLE ROCK    MOSUNNY   58  45  62 E10G20    30.30F

......OKLAHOMA.......

CITY           SKY/WX    TMP DP  RH WIND       PRES   REMARKS
TULSA          CLOUDY    60  45  57 E9        30.20F
PONCA CITY     CLOUDY    58  40  51 E14       30.21S
MCALESTER      CLOUDY    65  50  58 SE7       30.18S
OKLAHOMA CITY  MOSUNNY   67  48  50 E12       30.14F

......IOWA............

CITY           SKY/WX    TMP DP  RH WIND       PRES   REMARKS
DES MOINES     NOT AVBL
QUAD CITIES    SUNNY     41  18  39 E15G25    30.53F

......ILLINOIS........

CITY           SKY/WX    TMP DP  RH WIND       PRES   REMARKS
QUINCY         NOT AVBL
CHICAGO        MOSUNNY   35  18  49 E12G22    30.57F WCI  27




USA.gov is the U.S. government's official web portal to all federal, state and local government web resources and services.